Location: *
(44.9308°N, 123.0197°W)
Time: 22:03:17
(UTC+00:00)

Cosmos 2195 Rocket - Pass Details

Date: 09 April 2020
Orbit: 948 x 994 km, 82.9° (Epoch: 02 June)

Event Time Altitude Azimuth Distance (km) Brightness Sun altitude
Rises 12:33:55 0° 193° (SSW) 3,626 7.1 -11.5°
Reaches altitude 10° 12:36:24 10° 195° (SSW) 2,690 6.5 -11.1°
Maximum altitude 12:42:33 72° 279° (W) 1,019 4.5 -10.0°
Drops below altitude 10° 12:48:49 10° 5° (N) 2,740 7.2 -9.0°
Sets 12:51:23 0° 7° (N) 3,698 7.9 -8.6°
